This is the latest recevied weather packets stored in our database for station/object DB2YI-13. If no packets are shown the sender has not sent any weather packets the latest 10 day(s).
| Time | Temp. | Humidity | Pressure | Rain* | Wind** | Luminosity | Snow |
|---|---|---|---|---|---|---|---|
| 1778080201 | 15° C | 86% | - | 0 mm | - | - | - |
| 1778079601 | 15° C | 85% | - | 0 mm | - | - | - |
| 1778079002 | 15° C | 86% | - | 0 mm | - | - | - |
| 1778078402 | 15° C | 85% | - | 0 mm | - | - | - |
| 1778077801 | 14.44° C | 85% | - | 0 mm | - | - | - |
| 1778077201 | 14.44° C | 85% | - | 0 mm | - | - | - |
| 1778076601 | 14.44° C | 82% | - | 0 mm | - | - | - |
| 1778076001 | 15.56° C | 76% | - | 0 mm | - | - | - |
| 1778075402 | 15.56° C | 75% | - | 0 mm | - | - | - |
| 1778074801 | 15.56° C | 75% | - | 0 mm | - | - | - |
| 1778074202 | 15.56° C | 75% | - | 0 mm | - | - | - |
| 1778073601 | 15.56° C | 76% | - | 0 mm | - | - | - |
| 1778073002 | 16.11° C | 74% | - | 0 mm | - | - | - |
| 1778072401 | 16.11° C | 74% | - | 0 mm | - | - | - |
| 1778071801 | 16.11° C | 73% | - | 0 mm | - | - | - |
| 1778071201 | 16.67° C | 71% | - | 0 mm | - | - | - |
| 1778070602 | 16.67° C | 71% | - | 0 mm | - | - | - |
| 1778070001 | 17.78° C | 74% | - | 0 mm | - | - | - |
| 1778069401 | 16.11° C | 76% | - | 0 mm | - | - | - |
| 1778068801 | 15.56° C | 78% | - | 0 mm | - | - | - |
| 1778068202 | 14.44° C | 79% | - | 0 mm | - | - | - |
| 1778067602 | 14.44° C | 78% | - | 0 mm | - | - | - |
| 1778067001 | 15° C | 77% | - | 0 mm | - | - | - |
| 1778066401 | 15° C | 77% | - | 0 mm | - | - | - |
| 1778065801 | 15° C | 76% | - | 0 mm | - | - | - |
* Rain latest hour (hover to see other rain measurements)
** Current wind speed in m/s (hover to see current wind gust speed)